Погода в Шебалине

Россия / Алтайский край     52°42′57″N   85°47′32″E
темп.,
°C
ветер,
м/с
пор.,
м/с
влажн.,
%
обл.,
%
осадки,
мм/ч
давл.,
гПа
погр.,
м
9 марта, вт
вт901:00+1зюз101897100 0.3 10161088
04:00−4з71388100 0.3 1022661
07:00−11зюз41096100 0.4 1028303
10:00−12юз479799 0.0 1030262
13:00−9юз248990 0.1 1030305
16:00−7ююз128118 0.0 1028328
19:00−10вюв228523 0.0 102721
22:00−10вюв227598 0.0 102721
10 марта, ср
ср1001:00−10вюв337996 0.0 102425
04:00−9юв238799 0.0 102333
07:00−9юв228895 0.0 102221
10:00−7вюв228910 0.0 102154
13:00−3вюв23885 0.0 1018197
16:00−1вюв359213 0.0 1016211
19:00−1в489139 0.0 1013137
22:00−4вюв348588 0.0 101155
11 марта, чт
чт1101:00−2юв468894 0.0 1010105
04:00−1зюз3482100 0.0 101078
07:00+1зюз81998100 0.1 1011814
10:00+1з71299100 0.5 1014680
13:00−3зюз6987100 0.9 1017813
16:00−3зюз5986100 0.0 1021824
19:00−5ююз3390100 0.0 102245
22:00−8ююв239067 0.0 102323
12 марта, пт
пт1201:00−6вюв598883 0.0 1020179
04:00−7ююз128990 0.0 101727
07:00−6юз3118193 0.0 1017285
10:00−5з61294100 1.1 1018959
13:00−7з71293100 2.6 1020945
16:00−7зюз5986100 0.9 1020981
19:00−9з2495100 1.6 1020206
22:00−9ююз3696100 1.0 1021294
13 марта, сб
сб1301:00−10юз3696100 1.5 1020308
04:00−11юз3696100 0.3 1019300
07:00−14з4993100 0.8 1021360
10:00−17з61093100 0.0 1025594
13:00−16з6887100 0.1 1030833
16:00−15з6882100 0.1 10341015
19:00−18зюз348998 0.1 103738
22:00−21ююз349551 0.0 103938